Location: Hohe Wand Kleine Kanzel
(47.8330°N, 16.0170°E)
Time: 04:38:12
(UTC+02:00)

Vanguard 2 - All Passes

Search period start: 06 August 2021 00:00
Search period end: 16 August 2021 00:00
Orbit: 552 x 2937 km, 32.9° (Epoch: 05 August)

Date Brightness Start Highest point End Pass type
(mag) Time Alt. Az. Time Alt. Az. Time Alt. Az.
06 Aug - 05:45:00 10° SSW 05:46:24 11° S 05:47:55 10° SSE daylight
06 Aug - 07:52:45 10° SSW 07:53:50 11° S 07:55:00 10° S daylight
07 Aug - 06:02:32 10° SSW 06:03:49 11° S 06:05:09 10° SSE daylight
09 Aug - 04:30:49 10° S 04:31:21 10° S 04:31:53 10° S visible
10 Aug - 04:48:08 10° SSW 04:48:45 10° S 04:49:23 10° S visible
11 Aug - 02:57:51 10° S 02:58:52 11° S 02:59:49 10° SSE visible
12 Aug - 03:14:30 10° SSW 03:16:17 12° S 03:17:56 10° SSE visible
13 Aug - 01:24:15 10° S 01:26:13 11° S 01:27:59 10° SSE night (unlit)
13 Aug - 03:31:43 10° SSW 03:33:42 12° S 03:35:31 10° SSE visible
14 Aug - 01:40:32 10° SSW 01:43:42 14° S 01:46:21 10° SE night (unlit)
14 Aug - 03:49:19 10° SW 03:51:05 12° S 03:52:45 10° SSE visible
14 Aug - 23:50:34 10° S 23:53:16 12° SSE 23:55:37 10° SE night (unlit)
15 Aug - 01:57:25 10° SW 02:01:10 16° S 02:04:12 10° SE night (unlit)
15 Aug - 04:07:27 10° SSW 04:08:27 11° SSW 04:09:24 10° S visible
